Weather History for Kivalina, AK

Change the Weather History Date:

Monday, August 26, 2013

  Actual Average Record
Temperature  
Mean Temperature 52 °F -  
Max Temperature 59 °F - - ()
Min Temperature 44 °F - - ()
Degree Days  
Heating Degree Days 14    
Growing Degree Days 2 (Base 50)    
Moisture  
Dew Point 38 °F    
Average Humidity 62    
Maximum Humidity 74    
Minimum Humidity 44    
Precipitation  
Precipitation 0.00 in - - ()
Sea Level Pressure  
Sea Level Pressure 29.72 in    
Wind  
Wind Speed 16 mph (East)    
Max Wind Speed 24 mph    
Max Gust Speed 32 mph    
Visibility 10 miles    
Events      
T = Trace of Precipitation, MM = Missing Value Source: NWS Daily Summary

Daily Weather History Graph

Daily Weather History Graph

Search for Another Location

Airport:

Trip Planner

Search our weather history database for the weather conditions in past years. The results will help you decide how hot, cold, wet, or windy it might be!

Date:

Astronomy

Aug. 26, 2013 Rise Set
Actual Time 7:05 AM AKDT 10:51 PM AKDT
Civil Twilight 5:55 AM AKDT 12:00 AM AKDT
Nautical Twilight 3:03 AM AKDT 2:19 AM AKDT
Astronomical Twilight Sun does not rise Sun does not rise
Moon 10:39 PM AKDT (8/26) 4:47 PM AKDT (8/26)
Length of Visible Light 18h 04m
Length of Day
15h 45m
Waning Gibbous, 65% of the Moon is Illuminated
Aug 26
Waning Gibbous
Aug 28
Last Quarter
Sep 5
New
Sep 12
First Quarter
Sep 19
Full

Hourly Weather History & Observations

Time (AKDT) Temp. Windchill Dew Point Humidity Pressure Visibility Wind Dir Wind Speed Gust Speed Precip Events Conditions
12:53 AM 46.9 °F - 39.0 °F 74% 29.77 in 10.0 mi ENE 12.7 mph - N/A   Clear
1:53 AM 46.9 °F - 39.0 °F 74% 29.76 in 10.0 mi ENE 13.8 mph - N/A   Clear
2:53 AM 46.9 °F - 37.9 °F 71% 29.76 in 10.0 mi ENE 16.1 mph - N/A   Clear
3:53 AM 46.0 °F 38.5 °F 36.0 °F 68% 29.76 in 10.0 mi ENE 19.6 mph - N/A   Clear
4:53 AM 45.0 °F 37.4 °F 35.1 °F 68% 29.75 in 10.0 mi East 18.4 mph - N/A   Clear
5:53 AM 44.1 °F 35.9 °F 35.1 °F 71% 29.75 in 10.0 mi ENE 19.6 mph - N/A   Clear
6:53 AM 44.1 °F 35.9 °F 35.1 °F 71% 29.75 in 10.0 mi East 19.6 mph - N/A   Clear
7:53 AM 44.1 °F 35.9 °F 35.1 °F 71% 29.75 in 10.0 mi ENE 19.6 mph - N/A   Clear
8:53 AM 46.0 °F 38.3 °F 35.1 °F 66% 29.74 in 10.0 mi ENE 20.7 mph - N/A   Clear
10:53 AM 50.0 °F - 37.0 °F 61% 29.73 in 10.0 mi East 19.6 mph - N/A   Clear
11:53 AM 53.1 °F - 35.1 °F 50% 29.72 in 10.0 mi East 24.2 mph 32.2 mph N/A   Clear
12:53 PM 55.0 °F - 34.0 °F 45% 29.72 in 10.0 mi ESE 23.0 mph 32.2 mph N/A   Clear
1:53 PM 55.0 °F - 36.0 °F 49% 29.72 in 10.0 mi ESE 19.6 mph 27.6 mph N/A   Clear
3:53 PM 59.0 °F - 37.0 °F 44% 29.71 in 10.0 mi SE 17.3 mph 23.0 mph N/A   Clear
4:53 PM 57.0 °F - 37.9 °F 49% 29.70 in 9.0 mi SE 13.8 mph - N/A   Clear
5:53 PM 55.9 °F - 39.9 °F 55% 29.70 in 10.0 mi SE 12.7 mph - N/A   Clear
6:53 PM 55.0 °F - 41.0 °F 59% 29.69 in 10.0 mi SE 10.4 mph - N/A   Mostly Cloudy
7:53 PM 55.0 °F - 41.0 °F 59% 29.68 in 10.0 mi ESE 12.7 mph - N/A   Overcast
8:53 PM 55.9 °F - 39.9 °F 55% 29.67 in 10.0 mi SE 13.8 mph - N/A   Overcast
9:53 PM 53.1 °F - 44.1 °F 71% 29.67 in 10.0 mi SE 12.7 mph - 0.00 in   Overcast
10:53 PM 52.0 °F - 44.1 °F 74% 29.66 in 10.0 mi ESE 12.7 mph - 0.00 in   Overcast
11:53 PM 53.1 °F - 43.0 °F 69% 29.66 in 10.0 mi ESE 12.7 mph - N/A   Overcast